Regional Weather Roundup
Issued by NWS

Home | Current Version | Previous Version | Graphics & Text | Print | Product List | Glossary On
Versions: 1 2 3 4 5 6 7 8 9 10 11 12 13 14 15 16 17 18 19 20 21 22 23 24 25 26 27 28 29 30 31 32 33 34 35 36 37 38 39 40 41 42 43 44 45 46 47 48 49 50
000
ASUS45 KSLC 190810
RWRUT

UTAH REGIONAL WEATHER ROUNDUP
NATIONAL WEATHER SERVICE SALT LAKE CITY UT
200 AM MDT TUE AUG 19 2014

UTZ001>011-023>025-190900-

NORTHERN UTAH

CITY           SKY/WX    TMP DP  RH WIND       PRES   REMARKS
HILL AFB       CLOUDY    77  46  34 S9        29.96S
LOGAN          CLEAR     66  43  43 VRB3      29.93R
OGDEN          CLOUDY    76  45  33 CALM      29.94S
PROVO AIRPORT  CLOUDY    73  46  38 S7        29.99R
SALT LAKE CITY CLOUDY    79  45  29 S14       29.90S
VERNAL         MOCLDY    69  39  33 NW8       29.96F
WENDOVER       CLOUDY    79  45  29 E12       29.90S
HEBER CITY     CLOUDY    72  39  30 S9        30.03S
WEST JORDAN    CLEAR     79  52  38 SE15      29.93F

$$

UTZ012>022-026-027-190900-

SOUTHERN UTAH

CITY           SKY/WX    TMP DP  RH WIND       PRES   REMARKS
BRYCE CANYON   CLOUDY    51  50  96 NW3       30.24F
CEDAR CITY     MOCLDY    60  54  80 E5        30.08F
MILFORD        CLOUDY    63  56  78 NE3       30.04
MOAB/CYNLANDS  PTCLDY    78  43  28 W20G43    29.94S
PRICE          CLOUDY    75  38  26 S10       30.08R
ST GEORGE      CLOUDY    73  55  53 E9        29.94S
KANAB          MOCLDY    64  54  68 NW8       30.09

$$

REGIONAL REPORTS     COLORADO/ARIZONA

CITY           SKY/WX    TMP DP  RH WIND       PRES   REMARKS
CRAIG, CO      MOCLDY    64  41  42 NE13G21   30.04F
GRAND JUNCTION CLOUDY    76  38  25 MISG      29.96S
RIFLE          MOCLDY    62  44  51 W5        30.02S
MONTROSE       CLOUDY    78  41  26 VRB7G21   30.08R
CORTEZ         CLOUDY    71  48  43 E10       30.14R
PAGE, AZ       CLOUDY    78  51  38 CALM      30.00F
GRAND CANYON     N/A    N/A N/A N/A MISG      30.18F
KINGMAN        LGT RAIN  72  63  73 SE20      29.97S
FLAGSTAFF      CLOUDY    54  52  93 CALM      30.22F

$$

REGIONAL REPORTS    NEVADA/IDAHO/WYOMING

CITY           SKY/WX    TMP DP  RH WIND       PRES   REMARKS
LAS VEGAS, NV  MOCLDY    88  58  36 S8        29.76F
ELY            LGT RAIN  60  52  74 S16       30.10S
ELKO           PTCLDY    68  38  33 E7        29.93S
POCATELLO, ID  CLEAR     53  48  83 CALM      29.91S
BURLEY         MOCLDY    61  52  72 N3        29.86F
EVANSTON, WY   MOCLDY    61  32  33 W14       30.12R
ROCK SPRINGS   MOCLDY    62  30  29 S8        30.08F

$$


USA.gov is the U.S. government's official web portal to all federal, state and local government web resources and services.